SR9NLI Weather Reports


Display with metric or nautical units.
time (UTC)temp
F
wind
direction
speed
MPH
gust
MPH
rain 1hr
in
rain 24hr
in
rain mn
in
humidity
%
barometer
mb
20260509130951 52 2 5.0 8.0 0.00 0.00 0.00 100 960.3
20260509130748 52 359 4.0 8.0 0.00 0.00 0.00 100 960.3
20260509130545 51 24 4.0 7.0 0.00 0.00 0.00 100 960.2
20260509130444 51 34 4.0 7.0 0.00 0.00 0.00 100 960.3
20260509130341 51 44 4.0 7.0 0.00 0.00 0.00 100 960.2
20260509130139 51 39 4.0 7.0 0.00 0.00 0.00 100 960.2
20260509125935 51 26 4.0 6.0 0.00 0.00 0.00 100 960.3
20260509125732 51 27 4.0 7.0 0.00 0.00 0.00 100 960.4
20260509125528 51 46 4.0 7.0 0.00 0.00 0.00 100 960.3
20260509125325 52 38 4.0 8.0 0.00 0.00 0.00 100 960.3
20260509125224 51 28 4.0 8.0 0.00 0.00 0.00 100 960.4
20260509125121 51 20 4.0 8.0 0.00 0.00 0.00 100 960.4
20260509124918 51 32 4.0 7.0 0.00 0.00 0.00 100 960.4
20260509124715 51 52 3.0 6.0 0.00 0.00 0.00 100 960.5
20260509124614 51 63 4.0 7.0 0.00 0.00 0.00 100 960.4
20260509124511 51 64 4.0 7.0 0.00 0.00 0.00 100 960.4
20260509124309 51 45 5.0 8.0 0.00 0.00 0.00 100 960.5
20260509124106 51 41 5.0 8.0 0.00 0.00 0.00 100 960.4
20260509124006 51 42 5.0 8.0 0.00 0.00 0.00 100 960.5
20260509123903 51 46 5.0 7.0 0.00 0.00 0.00 100 960.4
20260509123700 51 46 5.0 8.0 0.00 0.00 0.00 100 960.4
20260509123457 51 33 5.0 8.0 0.00 0.00 0.00 100 960.5
20260509123357 51 22 5.0 8.0 0.00 0.00 0.00 100 960.5
20260509123254 51 15 5.0 8.0 0.00 0.00 0.00 100 960.5
20260509123051 51 15 5.0 8.0 0.00 0.00 0.00 100 960.5
20260509122848 52 9 5.0 8.0 0.00 0.00 0.00 100 960.5
20260509122747 52 4 5.0 8.0 0.00 0.00 0.00 100 960.5
20260509122645 51 351 5.0 8.0 0.00 0.00 0.00 100 960.6
20260509122442 52 340 4.0 7.0 0.00 0.00 0.00 100 960.5
20260509122238 51 341 5.0 8.0 0.00 0.00 0.00 100 960.6
20260509122138 51 339 6.0 10.0 0.00 0.00 0.00 100 960.6
20260509122035 51 340 6.0 10.0 0.00 0.00 0.00 100 960.6
20260509121832 51 339 6.0 10.0 0.00 0.00 0.00 100 960.6
20260509121630 51 348 6.0 9.0 0.00 0.00 0.00 100 960.5
20260509121530 51 353 6.0 12.0 0.00 0.00 0.00 100 960.6
20260509121427 51 358 6.0 12.0 0.00 0.00 0.00 100 960.6
20260509121224 51 0 7.0 12.0 0.00 0.00 0.00 100 960.6
20260509121021 51 358 8.0 11.0 0.00 0.00 0.00 100 960.6
20260509120814 50 2 10.0 13.0 0.00 0.00 0.00 100 960.5
20260509120611 50 3 8.0 13.0 0.00 0.00 0.00 100 960.4
20260509120408 51 342 7.0 12.0 0.00 0.00 0.00 100 960.5
20260509120307 51 341 6.0 10.0 0.00 0.00 0.00 100 960.5
20260509120205 51 342 6.0 11.0 0.00 0.00 0.00 100 960.5
20260509120002 51 351 6.0 11.0 0.00 0.00 0.00 100 960.6
20260509115759 52 349 5.0 11.0 0.00 0.00 0.00 100 960.6
20260509115658 52 0 5.0 11.0 0.00 0.00 0.00 100 960.6
20260509115556 51 8 5.0 11.0 0.00 0.00 0.00 100 960.6
20260509115353 52 42 4.0 6.0 0.00 0.00 0.00 100 960.5
20260509115150 51 30 4.0 9.0 0.00 0.00 0.00 100 960.7
20260509115049 52 24 4.0 9.0 0.00 0.00 0.00 100 960.6
20260509114947 51 7 4.0 9.0 0.00 0.00 0.00 100 960.5
20260509114743 51 319 3.0 7.0 0.00 0.00 0.00 100 960.6
20260509114540 51 334 5.0 9.0 0.00 0.00 0.00 100 960.6
20260509114337 51 330 4.0 9.0 0.00 0.00 0.00 100 960.6
20260509114133 51 333 4.0 8.0 0.00 0.00 0.00 100 960.6
20260509113930 51 343 5.0 8.0 0.00 0.00 0.00 100 960.6
20260509113829 51 348 4.0 6.0 0.00 0.00 0.00 100 960.8
20260509113727 51 339 4.0 6.0 0.00 0.00 0.00 100 960.6
20260509113524 51 325 3.0 7.0 0.00 0.00 0.00 100 960.7
20260509113321 51 345 2.0 5.0 0.00 0.00 0.00 100 960.6
20260509113220 51 47 2.0 5.0 0.00 0.00 0.00 100 960.6
20260509113118 51 40 2.0 5.0 0.00 0.00 0.00 100 960.7
20260509112915 51 11 3.0 5.0 0.00 0.00 0.00 100 960.7
20260509112711 51 335 3.0 5.0 0.00 0.00 0.00 100 960.6
20260509112610 51 342 3.0 7.0 0.00 0.00 0.00 100 960.7
20260509112508 51 343 4.0 7.0 0.00 0.00 0.00 100 960.7
20260509112307 50 346 4.0 8.0 0.00 0.00 0.00 100 960.7
20260509112102 50 344 4.0 8.0 0.00 0.00 0.00 100 960.7
20260509112001 51 340 4.0 8.0 0.00 0.00 0.00 100 960.7
20260509111858 50 344 4.0 8.0 0.00 0.00 0.00 100 960.7
20260509111655 50 357 4.0 6.0 0.00 0.00 0.00 100 960.8
20260509111452 50 352 4.0 7.0 0.00 0.00 0.00 100 960.7
20260509111351 50 349 5.0 7.0 0.00 0.00 0.00 100 960.8
20260509111249 50 344 5.0 8.0 0.00 0.00 0.00 100 960.7
20260509111036 50 328 5.0 9.0 0.00 0.00 0.00 100 960.7
20260509110833 50 343 6.0 10.0 0.00 0.00 0.00 100 960.7
20260509110732 50 351 6.0 10.0 0.00 0.00 0.00 100 960.7
20260509110627 50 359 7.0 10.0 0.00 0.00 0.00 100 960.8
20260509110424 50 356 6.0 9.0 0.00 0.00 0.00 100 960.8
20260509110221 50 353 6.0 10.0 0.00 0.00 0.00 100 960.9
20260509110120 50 353 6.0 10.0 0.00 0.00 0.00 100 960.8
20260509110017 50 349 7.0 10.0 0.00 0.00 0.00 100 960.9
20260509105814 50 345 6.0 9.0 0.00 0.00 0.00 100 960.8
20260509105611 50 351 6.0 11.0 0.00 0.00 0.00 100 960.9
20260509105510 50 353 7.0 11.0 0.00 0.00 0.00 100 960.9
20260509105408 49 351 7.0 11.0 0.00 0.00 0.00 100 960.8
20260509105205 50 335 6.0 11.0 0.00 0.00 0.00 100 961.0
20260509105001 50 335 6.0 11.0 0.00 0.00 0.00 100 960.9
20260509104902 50 342 6.0 9.0 0.00 0.00 0.00 100 960.9
20260509104759 50 349 5.0 8.0 0.00 0.00 0.00 100 960.8
20260509104556 50 352 6.0 10.0 0.00 0.00 0.00 100 960.8
20260509104354 49 348 6.0 11.0 0.00 0.00 0.00 100 960.8
20260509104253 49 346 7.0 12.0 0.00 0.00 0.00 100 960.8
20260509104150 50 343 7.0 12.0 0.00 0.00 0.00 100 961.0
20260509103947 49 336 8.0 12.0 0.00 0.00 0.00 100 960.9
20260509103744 50 342 7.0 10.0 0.00 0.00 0.00 100 960.9
20260509103643 50 341 6.0 10.0 0.00 0.00 0.00 100 960.8
20260509103541 50 340 6.0 10.0 0.00 0.00 0.00 100 960.8
20260509103337 49 341 7.0 10.0 0.00 0.00 0.00 100 960.9
20260509103134 49 354 8.0 10.0 0.00 0.00 0.00 100 960.9
20260509103034 49 0 8.0 10.0 0.00 0.00 0.00 100 960.9
20260509102931 49 1 7.0 10.0 0.00 0.00 0.00 100 960.9
20260509102728 50 344 6.0 10.0 0.00 0.00 0.00 100 960.9
20260509102524 50 342 5.0 9.0 0.00 0.00 0.00 100 960.8
20260509102423 50 345 5.0 8.0 0.00 0.00 0.00 100 960.8
20260509102321 50 348 5.0 9.0 0.00 0.00 0.00 100 960.9
20260509102118 49 350 6.0 10.0 0.00 0.00 0.00 100 960.8
20260509101914 49 357 8.0 13.0 0.00 0.00 0.00 100 960.8
20260509101712 49 2 9.0 13.0 0.00 0.00 0.00 100 960.9
20260509101509 49 359 9.0 12.0 0.00 0.00 0.00 100 960.9
20260509101306 49 357 9.0 12.0 0.00 0.00 0.00 100 960.9
20260509101103 49 2 8.0 12.0 0.00 0.00 0.00 100 960.9
20260509100900 49 3 7.0 11.0 0.00 0.00 0.00 100 960.9
20260509100657 49 3 7.0 10.0 0.00 0.00 0.00 100 960.9
20260509100556 49 3 6.0 10.0 0.00 0.00 0.00 100 960.9
20260509100450 50 1 6.0 11.0 0.00 0.00 0.00 100 961.0
20260509100247 49 359 8.0 12.0 0.00 0.00 0.00 100 960.8
20260509100044 49 356 7.0 12.0 0.00 0.00 0.00 100 960.9
20260509095944 49 349 7.0 12.0 0.00 0.00 0.00 100 960.9
20260509095841 49 346 7.0 12.0 0.00 0.00 0.00 100 960.9
20260509095638 49 347 8.0 12.0 0.00 0.00 0.00 100 961.0
20260509095435 49 355 7.0 12.0 0.00 0.00 0.00 100 960.9
20260509095334 49 353 7.0 11.0 0.00 0.00 0.00 100 961.0
20260509095232 49 353 7.0 12.0 0.00 0.00 0.00 100 961.0
20260509095028 49 350 7.0 12.0 0.00 0.00 0.00 100 961.0
20260509094825 50 337 6.0 11.0 0.00 0.00 0.00 100 960.9
20260509094623 49 340 7.0 11.0 0.00 0.00 0.00 100 960.9
20260509094420 50 335 6.0 11.0 0.00 0.00 0.00 100 961.0
20260509094216 50 328 6.0 10.0 0.00 0.00 0.00 100 960.9
20260509094115 49 331 7.0 10.0 0.00 0.00 0.00 100 960.9
20260509094013 49 328 7.0 11.0 0.00 0.00 0.00 100 960.9
20260509093810 49 332 6.0 11.0 0.00 0.00 0.00 100 960.8
20260509093607 49 348 7.0 10.0 0.00 0.00 0.00 100 960.9
20260509093507 49 356 7.0 10.0 0.00 0.00 0.00 100 960.8
20260509093405 49 1 7.0 10.0 0.00 0.00 0.00 100 960.9
20260509093202 49 3 6.0 8.0 0.00 0.00 0.00 100 960.9
20260509092958 49 356 5.0 8.0 0.00 0.00 0.00 100 960.9
20260509092857 49 350 5.0 8.0 0.00 0.00 0.00 100 960.9
20260509092755 49 347 5.0 10.0 0.00 0.00 0.00 100 960.9
20260509092551 49 348 7.0 13.0 0.00 0.00 0.00 100 960.9
20260509092348 49 349 7.0 13.0 0.00 0.00 0.00 100 960.8
20260509092248 49 350 8.0 13.0 0.00 0.00 0.00 100 960.9
20260509092145 49 352 8.0 13.0 0.00 0.00 0.00 100 960.9
20260509091942 49 0 7.0 11.0 0.00 0.00 0.00 100 960.9
20260509091739 49 6 6.0 11.0 0.00 0.00 0.00 100 960.8
20260509091638 49 357 6.0 10.0 0.00 0.00 0.00 100 960.8
20260509091536 49 350 6.0 10.0 0.00 0.00 0.00 100 960.9
20260509091332 49 344 8.0 14.0 0.00 0.00 0.00 100 960.8
20260509091130 49 356 8.0 14.0 0.00 0.00 0.00 100 960.9
20260509091029 49 2 8.0 14.0 0.00 0.00 0.00 100 960.7
20260509090927 49 7 7.0 12.0 0.00 0.00 0.00 100 960.9
20260509090724 49 8 7.0 12.0 0.00 0.00 0.00 100 960.8
20260509090521 49 356 7.0 12.0 0.00 0.00 0.00 100 960.8
20260509090420 49 356 8.0 12.0 0.00 0.00 0.00 100 960.8
20260509090315 49 356 8.0 12.0 0.00 0.00 0.00 100 960.9
20260509090112 49 5 7.0 11.0 0.00 0.00 0.00 100 960.8
20260509085909 49 14 6.0 10.0 0.00 0.00 0.00 100 960.8
20260509085808 49 13 6.0 10.0 0.00 0.00 0.00 100 960.8
20260509085706 49 10 7.0 10.0 0.00 0.00 0.00 100 960.8
20260509085503 49 3 7.0 11.0 0.00 0.00 0.00 100 960.7
20260509085259 49 353 7.0 11.0 0.00 0.00 0.00 100 960.8
20260509085159 49 348 7.0 11.0 0.00 0.00 0.00 100 960.7
20260509085056 50 346 6.0 11.0 0.00 0.00 0.00 100 960.8
20260509084853 50 349 7.0 11.0 0.00 0.00 0.00 100 960.7
20260509084650 50 11 6.0 11.0 0.00 0.00 0.00 100 960.6
20260509084549 50 22 5.0 10.0 0.00 0.00 0.00 100 960.6
20260509084447 50 33 5.0 9.0 0.00 0.00 0.00 100 960.7
20260509084244 50 16 6.0 9.0 0.00 0.00 0.00 100 960.7
20260509084040 51 3 6.0 10.0 0.00 0.00 0.00 100 960.7
20260509083940 51 356 6.0 11.0 0.00 0.00 0.00 100 960.7
20260509083837 51 7 6.0 11.0 0.00 0.00 0.00 100 960.7
20260509083634 50 39 6.0 11.0 0.00 0.00 0.00 100 960.7
20260509083431 50 52 6.0 9.0 0.00 0.00 0.00 100 960.7
20260509083330 50 30 6.0 9.0 0.00 0.00 0.00 100 960.7
20260509083216 50 16 7.0 13.0 0.00 0.00 0.00 100 960.6
20260509083012 50 8 6.0 13.0 0.00 0.00 0.00 100 960.5
20260509082808 50 24 6.0 11.0 0.00 0.00 0.00 100 960.8
20260509082708 51 22 6.0 11.0 0.00 0.00 0.00 100 960.6
20260509082606 50 22 5.0 11.0 0.00 0.00 0.00 100 960.7
20260509082402 50 357 4.0 9.0 0.00 0.00 0.00 100 960.6
20260509082159 50 351 5.0 10.0 0.00 0.00 0.00 100 960.5
20260509082059 49 351 5.0 10.0 0.00 0.00 0.00 100 960.5
20260509081957 50 354 5.0 10.0 0.00 0.00 0.00 100 960.5
20260509081753 50 349 5.0 10.0 0.00 0.00 0.00 100 960.5
20260509081549 50 355 6.0 10.0 0.00 0.00 0.00 100 960.6
20260509081449 51 0 6.0 12.0 0.00 0.00 0.00 100 960.5
20260509081347 50 359 7.0 12.0 0.00 0.00 0.00 100 960.6
20260509081144 50 3 6.0 12.0 0.00 0.00 0.00 100 960.6
20260509080941 49 3 6.0 10.0 0.00 0.00 0.00 100 960.6
20260509080840 49 4 6.0 10.0 0.00 0.00 0.00 100 960.5
20260509080738 49 8 6.0 10.0 0.00 0.00 0.00 100 960.6
20260509080534 49 39 5.0 8.0 0.00 0.00 0.00 100 960.6
20260509080331 49 37 5.0 8.0 0.00 0.00 0.00 100 960.5
20260509080231 49 32 4.0 8.0 0.00 0.00 0.00 100 960.6
20260509080125 49 6 4.0 8.0 0.00 0.00 0.00 100 960.6
20260509075922 49 355 5.0 10.0 0.00 0.00 0.00 100 960.6
20260509075719 48 0 6.0 10.0 0.00 0.00 0.00 100 960.6
20260509075619 49 348 6.0 10.0 0.00 0.00 0.00 100 960.5
20260509075516 49 344 6.0 11.0 0.00 0.00 0.00 100 960.5
20260509075312 49 333 5.0 11.0 0.00 0.00 0.00 100 960.5
20260509075110 50 340 4.0 11.0 0.00 0.00 0.00 100 960.6
20260509075010 50 340 5.0 11.0 0.00 0.00 0.00 100 960.6
20260509074907 50 343 5.0 9.0 0.00 0.00 0.00 100 960.6
20260509074705 49 351 5.0 9.0 0.00 0.00 0.00 100 960.5
20260509074502 48 20 5.0 8.0 0.00 0.00 0.00 100 960.6
20260509074402 49 32 4.0 7.0 0.00 0.00 0.00 100 960.6
20260509074300 49 9 4.0 9.0 0.00 0.00 0.00 100 960.5
20260509074056 48 352 5.0 10.0 0.00 0.00 0.00 100 960.5
20260509073853 48 18 6.0 10.0 0.00 0.00 0.00 100 960.5
20260509073650 48 20 5.0 9.0 0.00 0.00 0.00 100 960.5
20260509073446 48 12 5.0 9.0 0.00 0.00 0.00 100 960.6
20260509073244 48 10 6.0 10.0 0.00 0.00 0.00 100 960.6
20260509073144 48 8 6.0 10.0 0.00 0.00 0.00 100 960.7
20260509073041 48 9 6.0 10.0 0.00 0.00 0.00 100 960.5
20260509072838 48 9 5.0 10.0 0.00 0.00 0.00 100 960.6
20260509072634 48 11 4.0 8.0 0.00 0.00 0.00 100 960.6
20260509072533 48 10 4.0 8.0 0.00 0.00 0.00 100 960.6
20260509072431 48 16 4.0 8.0 0.00 0.00 0.00 100 960.6
20260509072228 48 26 6.0 10.0 0.00 0.00 0.00 100 960.6
20260509072025 48 35 6.0 10.0 0.00 0.00 0.00 100 960.5
20260509071924 48 40 5.0 10.0 0.00 0.00 0.00 100 960.6
20260509071821 48 51 5.0 9.0 0.00 0.00 0.00 100 960.5
20260509071618 48 47 5.0 8.0 0.00 0.00 0.00 100 960.5
20260509071415 48 40 4.0 7.0 0.00 0.00 0.00 100 960.6
20260509071314 48 37 4.0 8.0 0.00 0.00 0.00 100 960.5
20260509071211 48 28 5.0 8.0 0.00 0.00 0.00 100 960.5
20260509071008 48 29 4.0 8.0 0.00 0.00 0.00 100 960.5
20260509070805 48 23 3.0 7.0 0.00 0.00 0.00 100 960.5
20260509070704 48 8 3.0 7.0 0.00 0.00 0.00 100 960.6
20260509070602 48 5 4.0 7.0 0.00 0.00 0.00 100 960.4
20260509070358 47 4 5.0 7.0 0.00 0.00 0.00 100 960.4
20260509070155 47 346 5.0 7.0 0.00 0.00 0.00 100 960.5
20260509070055 48 343 5.0 10.0 0.00 0.00 0.00 100 960.5
20260509065950 47 340 5.0 10.0 0.00 0.00 0.00 100 960.5
20260509065746 47 342 5.0 10.0 0.00 0.00 0.00 100 960.5
20260509065544 48 349 5.0 9.0 0.00 0.00 0.00 100 960.6
20260509065443 47 352 5.0 9.0 0.00 0.00 0.00 100 960.5
20260509065340 47 357 5.0 9.0 0.00 0.00 0.00 100 960.5
20260509065137 48 8 4.0 9.0 0.00 0.00 0.00 100 960.6
20260509064934 48 357 5.0 10.0 0.00 0.00 0.00 100 960.5
20260509064833 47 357 7.0 10.0 0.00 0.00 0.00 100 960.4
20260509064731 47 357 7.0 10.0 0.00 0.00 0.00 100 960.5
20260509064527 47 8 6.0 10.0 0.00 0.00 0.00 100 960.4
20260509064324 47 7 5.0 8.0 0.00 0.00 0.00 100 960.6
20260509064223 47 3 6.0 9.0 0.00 0.00 0.00 100 960.5
20260509064121 47 3 6.0 9.0 0.00 0.00 0.00 100 960.5
20260509063919 47 1 7.0 11.0 0.00 0.00 0.00 100 960.4
20260509063716 47 1 7.0 10.0 0.00 0.00 0.00 100 960.5
20260509063615 47 358 7.0 10.0 0.00 0.00 0.00 100 960.5
20260509063512 47 355 6.0 10.0 0.00 0.00 0.00 100 960.5
20260509063309 47 348 6.0 10.0 0.00 0.00 0.00 100 960.5
20260509063106 47 348 5.0 10.0 0.00 0.00 0.00 100 960.6
20260509063004 47 349 6.0 10.0 0.00 0.00 0.00 100 960.6
20260509062902 47 355 6.0 10.0 0.00 0.00 0.00 100 960.6
20260509062659 46 0 8.0 12.0 0.00 0.00 0.00 100 960.5
20260509062456 46 6 8.0 12.0 0.00 0.00 0.00 100 960.5
20260509062356 46 8 7.0 12.0 0.00 0.00 0.00 100 960.5
20260509062253 47 16 6.0 12.0 0.00 0.00 0.00 100 960.5
20260509062050 47 16 4.0 6.0 0.00 0.00 0.00 100 960.5
20260509061847 47 20 5.0 9.0 0.00 0.00 0.00 100 960.5
20260509061747 46 15 5.0 9.0 0.00 0.00 0.00 100 960.6
20260509061644 46 11 6.0 9.0 0.00 0.00 0.00 100 960.6
20260509061441 46 3 6.0 9.0 0.00 0.00 0.00 100 960.5
20260509061238 46 2 7.0 10.0 0.00 0.00 0.00 100 960.5
20260509061137 46 5 6.0 10.0 0.00 0.00 0.00 100 960.5
20260509061034 46 5 5.0 10.0 0.00 0.00 0.00 100 960.5
20260509060832 46 9 5.0 8.0 0.00 0.00 0.00 100 960.6
20260509060629 46 9 6.0 10.0 0.00 0.00 0.00 100 960.4
20260509060528 46 8 6.0 10.0 0.00 0.00 0.00 100 960.5
20260509060425 46 5 6.0 10.0 0.00 0.00 0.00 100 960.5
20260509060222 46 2 6.0 8.0 0.00 0.00 0.00 100 960.5
20260509060019 46 0 6.0 8.0 0.00 0.00 0.00 100 960.5
20260509055918 46 359 6.0 8.0 0.00 0.00 0.00 100 960.4
20260509055813 46 359 6.0 8.0 0.00 0.00 0.00 100 960.5
20260509055610 46 3 5.0 7.0 0.00 0.00 0.00 100 960.5
20260509055407 46 359 6.0 9.0 0.00 0.00 0.00 100 960.4
20260509055253 46 356 7.0 10.0 0.00 0.00 0.00 100 960.5
20260509055151 46 356 7.0 10.0 0.00 0.00 0.00 100 960.6
20260509054948 46 1 6.0 10.0 0.00 0.00 0.00 100 960.4
20260509054745 46 358 5.0 8.0 0.00 0.00 0.00 100 960.5
20260509054644 46 358 5.0 8.0 0.00 0.00 0.00 100 960.5
20260509054541 46 351 5.0 8.0 0.00 0.00 0.00 100 960.5
20260509054338 46 349 4.0 7.0 0.00 0.00 0.00 100 960.5
20260509054135 46 1 5.0 8.0 0.00 0.00 0.00 100 960.5
20260509054034 46 2 5.0 8.0 0.00 0.00 0.00 100 960.4
20260509053932 46 2 5.0 8.0 0.00 0.00 0.00 100 960.5
20260509053729 46 348 5.0 7.0 0.00 0.00 0.00 100 960.5
20260509053525 46 351 6.0 8.0 0.00 0.00 0.00 100 960.5
20260509053425 46 356 6.0 8.0 0.00 0.00 0.00 100 960.6
20260509053323 46 358 6.0 9.0 0.00 0.00 0.00 100 960.4
20260509053119 46 354 6.0 9.0 0.00 0.00 0.00 100 960.4
20260509052916 46 353 6.0 8.0 0.00 0.00 0.00 100 960.4
20260509052815 46 3 6.0 8.0 0.00 0.00 0.00 100 960.4
20260509052713 46 4 5.0 8.0 0.00 0.00 0.00 100 960.4
20260509052510 46 3 4.0 6.0 0.00 0.00 0.00 100 960.4
20260509052307 46 354 5.0 7.0 0.00 0.00 0.00 100 960.4
20260509052206 46 347 5.0 8.0 0.00 0.00 0.00 100 960.4
20260509052104 46 346 6.0 8.0 0.00 0.00 0.00 100 960.3
20260509051902 46 347 5.0 8.0 0.00 0.00 0.00 100 960.3
20260509051658 46 346 4.0 8.0 0.00 0.00 0.00 100 960.4
20260509051557 46 346 4.0 6.0 0.00 0.00 0.00 100 960.4
20260509051455 46 348 4.0 6.0 0.00 0.00 0.00 100 960.4
20260509051252 46 347 4.0 6.0 0.00 0.00 0.00 100 960.3
20260509051049 46 346 5.0 8.0 0.00 0.00 0.00 100 960.4
20260509050948 46 348 5.0 8.0 0.00 0.00 0.00 100 960.5
20260509050845 46 348 6.0 8.0 0.00 0.00 0.00 100 960.4
20260509050643 46 347 5.0 8.0 0.00 0.00 0.00 100 960.5
20260509050439 46 342 4.0 7.0 0.00 0.00 0.00 100 960.4
20260509050338 46 344 4.0 6.0 0.00 0.00 0.00 100 960.4
20260509050236 46 345 4.0 7.0 0.00 0.00 0.00 100 960.4
20260509050034 46 345 4.0 7.0 0.00 0.00 0.00 100 960.5
20260509045831 46 336 4.0 7.0 0.00 0.00 0.00 100 960.3
20260509045731 46 335 4.0 7.0 0.00 0.00 0.00 100 960.4
20260509045625 46 332 4.0 7.0 0.00 0.00 0.00 100 960.5
20260509045421 46 336 4.0 6.0 0.00 0.00 0.00 100 960.5
20260509045218 46 338 4.0 6.0 0.00 0.00 0.00 100 960.4
20260509045117 46 334 4.0 6.0 0.00 0.00 0.00 100 960.4
20260509045015 46 338 4.0 6.0 0.00 0.00 0.00 100 960.4
20260509044812 46 332 4.0 6.0 0.00 0.00 0.00 100 960.4
20260509044608 46 329 4.0 6.0 0.00 0.00 0.00 100 960.4
20260509044507 46 326 4.0 6.0 0.00 0.00 0.00 100 960.4
20260509044405 46 331 5.0 8.0 0.00 0.00 0.00 100 960.4
20260509044203 46 333 5.0 8.0 0.00 0.00 0.00 100 960.3
20260509043959 46 332 4.0 6.0 0.00 0.00 0.00 100 960.3
20260509043859 46 331 4.0 6.0 0.00 0.00 0.00 100 960.3
20260509043756 46 330 4.0 7.0 0.00 0.00 0.00 100 960.3
20260509043554 46 330 4.0 7.0 0.00 0.00 0.00 100 960.3
20260509043350 46 323 4.0 8.0 0.00 0.00 0.00 100 960.3
20260509043250 46 321 4.0 8.0 0.00 0.00 0.00 100 960.3
20260509043148 46 319 4.0 8.0 0.00 0.00 0.00 100 960.3
20260509042945 46 320 4.0 7.0 0.00 0.00 0.00 100 960.3
20260509042741 46 322 4.0 6.0 0.00 0.00 0.00 100 960.3
20260509042640 46 321 4.0 6.0 0.00 0.00 0.00 100 960.2
20260509042538 46 323 4.0 6.0 0.00 0.00 0.00 100 960.2
20260509042334 46 328 4.0 7.0 0.00 0.00 0.00 100 960.1
20260509042132 46 329 4.0 7.0 0.00 0.00 0.00 100 960.3
20260509042031 46 331 4.0 7.0 0.00 0.00 0.00 100 960.2
20260509041928 46 330 3.0 7.0 0.00 0.00 0.00 100 960.3
20260509041725 46 331 3.0 7.0 0.00 0.00 0.00 100 960.2
20260509041522 46 322 4.0 6.0 0.00 0.00 0.00 100 960.2
20260509041421 46 321 4.0 6.0 0.00 0.00 0.00 100 960.2
20260509041318 46 321 4.0 7.0 0.00 0.00 0.00 100 960.2
20260509041115 46 324 4.0 7.0 0.00 0.00 0.00 100 960.2
20260509040912 45 324 3.0 6.0 0.00 0.00 0.00 100 960.2
20260509040811 45 324 3.0 6.0 0.00 0.00 0.00 100 960.2
20260509040709 46 323 3.0 6.0 0.00 0.00 0.00 100 960.2
20260509040505 45 315 4.0 6.0 0.00 0.00 0.00 100 960.1
20260509040302 45 316 4.0 7.0 0.00 0.00 0.00 100 960.1
20260509040202 45 317 4.0 7.0 0.00 0.00 0.00 100 960.1
20260509040100 45 318 4.0 7.0 0.00 0.00 0.00 100 960.2
20260509035857 45 319 5.0 9.0 0.00 0.00 0.00 100 960.2
20260509035653 45 316 5.0 9.0 0.00 0.00 0.00 100 960.2
20260509035553 45 317 5.0 9.0 0.00 0.00 0.00 100 960.1
20260509035447 45 323 4.0 9.0 0.00 0.00 0.00 100 960.2
20260509035244 45 327 4.0 6.0 0.00 0.00 0.00 100 960.1
20260509035042 45 330 4.0 6.0 0.00 0.00 0.00 100 960.2
20260509034941 45 333 5.0 6.0 0.00 0.00 0.00 100 960.2
20260509034839 45 334 4.0 6.0 0.00 0.00 0.00 100 960.2
20260509034636 45 330 3.0 6.0 0.00 0.00 0.00 100 960.2
20260509034433 45 329 4.0 6.0 0.00 0.00 0.00 100 960.1
20260509034333 45 329 4.0 6.0 0.00 0.00 0.00 100 960.2
20260509034230 45 329 4.0 6.0 0.00 0.00 0.00 100 960.2
20260509034028 45 328 4.0 6.0 0.00 0.00 0.00 100 960.1
20260509033824 45 326 4.0 7.0 0.00 0.00 0.00 100 960.2
20260509033724 45 325 4.0 7.0 0.00 0.00 0.00 100 960.2
20260509033621 45 325 4.0 7.0 0.00 0.00 0.00 100 960.2
20260509033418 45 332 4.0 6.0 0.00 0.00 0.00 100 960.2
20260509033215 45 337 4.0 8.0 0.00 0.00 0.00 100 960.1
20260509033114 45 336 4.0 8.0 0.00 0.00 0.00 100 960.2
20260509033011 45 333 5.0 8.0 0.00 0.00 0.00 100 960.2
20260509032808 45 327 4.0 8.0 0.00 0.00 0.00 100 960.1
20260509032605 45 325 4.0 7.0 0.00 0.00 0.00 100 960.1
20260509032504 45 323 5.0 7.0 0.00 0.00 0.00 100 960.2
20260509032207 45 327 5.0 7.0 0.00 0.00 0.00 100 960.1
20260509032004 45 328 4.0 6.0 0.00 0.00 0.00 100 960.2
20260509031903 45 330 4.0 7.0 0.00 0.00 0.00 100 960.2
20260509031800 45 331 4.0 7.0 0.00 0.00 0.00 100 960.2
20260509031557 45 330 3.0 6.0 0.00 0.00 0.00 100 960.2
20260509031354 45 336 4.0 6.0 0.00 0.00 0.00 100 960.2
20260509031253 45 337 4.0 6.0 0.00 0.00 0.00 100 960.1
20260509031151 45 337 4.0 5.0 0.00 0.00 0.00 100 960.2
20260509030948 45 328 4.0 8.0 0.00 0.00 0.00 100 960.2
20260509030744 45 324 5.0 8.0 0.00 0.00 0.00 100 960.2
20260509030630 45 325 5.0 8.0 0.00 0.00 0.00 100 960.2
20260509030528 45 328 5.0 8.0 0.00 0.00 0.00 100 960.1
20260509030326 45 321 5.0 8.0 0.00 0.00 0.00 100 960.1
20260509030122 45 323 4.0 7.0 0.00 0.00 0.00 100 960.2
20260509030022 45 323 4.0 8.0 0.00 0.00 0.00 100 960.1
20260509025919 45 323 4.0 8.0 0.00 0.00 0.00 100 960.1
20260509025716 45 326 5.0 12.0 0.00 0.00 0.00 100 960.2
20260509025513 45 324 6.0 12.0 0.00 0.00 0.00 100 960.2
20260509025412 45 323 6.0 12.0 0.00 0.00 0.00 100 960.2
20260509025310 45 323 5.0 12.0 0.00 0.00 0.00 100 960.1
20260509025107 45 327 5.0 7.0 0.00 0.00 0.00 100 960.1
20260509024904 46 330 5.0 9.0 0.00 0.00 0.00 100 960.1
20260509024804 45 331 5.0 9.0 0.00 0.00 0.00 100 960.2
20260509024701 45 336 5.0 9.0 0.00 0.00 0.00 100 960.1
20260509024458 45 338 4.0 8.0 0.00 0.00 0.00 100 960.1
20260509024255 45 333 5.0 9.0 0.00 0.00 0.00 100 960.2
20260509024155 46 323 5.0 9.0 0.00 0.00 0.00 100 960.1
20260509024052 46 321 6.0 10.0 0.00 0.00 0.00 100 960.2
20260509023849 46 322 6.0 10.0 0.00 0.00 0.00 100 960.1
20260509023646 46 326 5.0 9.0 0.00 0.00 0.00 100 960.2
20260509023546 45 329 5.0 9.0 0.00 0.00 0.00 100 960.1
20260509023444 45 328 5.0 9.0 0.00 0.00 0.00 100 960.1
20260509023241 45 332 5.0 10.0 0.00 0.00 0.00 100 960.2
20260509023038 45 332 6.0 10.0 0.00 0.00 0.00 100 960.2
20260509022937 46 332 6.0 10.0 0.00 0.00 0.00 100 960.1
20260509022835 45 335 6.0 10.0 0.00 0.00 0.00 100 960.2
20260509022632 45 336 5.0 9.0 0.00 0.00 0.00 100 960.1
20260509022429 45 337 5.0 8.0 0.00 0.00 0.00 100 960.2
20260509022328 45 338 5.0 9.0 0.00 0.00 0.00 100 960.2
20260509022225 45 339 5.0 9.0 0.00 0.00 0.00 100 960.2
20260509022022 45 340 4.0 9.0 0.00 0.00 0.00 100 960.2
20260509021819 45 342 5.0 10.0 0.00 0.00 0.00 100 960.1
20260509021718 45 344 6.0 10.0 0.00 0.00 0.00 100 960.2
20260509021616 45 344 6.0 11.0 0.00 0.00 0.00 100 960.1
20260509021413 45 342 6.0 11.0 0.00 0.00 0.00 100 960.1
20260509021209 45 343 5.0 10.0 0.00 0.00 0.00 100 960.1
20260509021109 45 343 5.0 10.0 0.00 0.00 0.00 100 960.1
20260509021006 45 341 5.0 9.0 0.00 0.00 0.00 100 960.1
20260509020804 45 331 5.0 11.0 0.00 0.00 0.00 100 960.1
20260509020600 45 334 5.0 11.0 0.00 0.00 0.00 100 960.1
20260509020500 45 338 5.0 9.0 0.00 0.00 0.00 100 960.1
20260509020357 45 340 6.0 9.0 0.00 0.00 0.00 100 960.1
20260509020154 45 342 6.0 9.0 0.00 0.00 0.00 100 960.2
20260509015950 45 343 4.0 8.0 0.00 0.00 0.00 100 960.1
20260509015850 45 339 4.0 8.0 0.00 0.00 0.00 100 960.2
20260509015748 45 337 4.0 8.0 0.00 0.00 0.00 100 960.1
20260509015544 45 336 5.0 8.0 0.00 0.00 0.00 100 960.1
20260509015341 46 335 6.0 8.0 0.00 0.00 0.00 100 960.2
20260509015240 46 332 6.0 10.0 0.00 0.00 0.00 100 960.1
20260509015137 45 331 6.0 10.0 0.00 0.00 0.00 100 960.1
20260509014934 46 327 5.0 10.0 0.00 0.00 0.00 100 960.0
20260509014732 45 331 6.0 10.0 0.00 0.00 0.00 100 960.2
20260509014631 45 335 6.0 10.0 0.00 0.00 0.00 100 960.1
20260509014529 45 336 6.0 10.0 0.00 0.00 0.00 100 960.1
20260509014326 46 332 6.0 10.0 0.00 0.00 0.00 100 960.1
20260509014122 46 334 8.0 12.0 0.00 0.00 0.00 100 960.1
20260509014022 46 332 8.0 12.0 0.00 0.00 0.00 100 960.1
20260509013919 46 334 8.0 12.0 0.00 0.00 0.00 100 960.1
20260509013717 46 332 7.0 10.0 0.00 0.00 0.00 100 960.0
20260509013514 46 332 6.0 8.0 0.00 0.00 0.00 100 960.0
20260509013413 46 332 6.0 11.0 0.00 0.00 0.00 100 960.1
20260509013311 46 331 6.0 11.0 0.00 0.00 0.00 100 960.1
20260509013108 46 333 8.0 11.0 0.00 0.00 0.00 100 960.1
20260509012905 46 333 8.0 11.0 0.00 0.00 0.00 100 960.0
20260509012804 46 331 8.0 11.0 0.00 0.00 0.00 100 960.0
20260509012701 46 329 8.0 13.0 0.00 0.00 0.00 100 960.1
20260509012458 46 328 7.0 13.0 0.00 0.00 0.00 100 960.0
20260509012255 46 329 7.0 11.0 0.00 0.00 0.00 100 960.1
20260509012155 46 331 7.0 11.0 0.00 0.00 0.00 100 960.0
20260509012052 46 329 7.0 11.0 0.00 0.00 0.00 100 960.1
20260509011849 46 333 6.0 11.0 0.00 0.00 0.00 100 960.1
20260509011645 46 336 6.0 11.0 0.00 0.00 0.00 100 960.0
20260509011545 46 335 6.0 11.0 0.00 0.00 0.00 100 960.0
20260509011443 46 334 6.0 12.0 0.00 0.00 0.00 100 960.1
20260509011239 46 331 6.0 11.0 0.00 0.00 0.00 100 960.0
20260509011037 46 330 5.0 11.0 0.00 0.00 0.00 100 960.0
20260509010936 46 325 4.0 8.0 0.00 0.00 0.00 100 960.1
20260509010834 46 334 4.0 8.0 0.00 0.00 0.00 100 960.0
20260509010630 46 337 6.0 9.0 0.00 0.00 0.00 100 960.0
20260509010427 46 330 6.0 12.0 0.00 0.00 0.00 100 959.9
20260509010327 46 330 6.0 12.0 0.00 0.00 0.00 100 959.9
20260509010224 46 327 5.0 12.0 0.00 0.00 0.00 100 960.0
20260509010021 46 328 4.0 7.0 0.00 0.00 0.00 100 960.0
20260509005818 46 325 4.0 7.0 0.00 0.00 0.00 100 959.9
20260509005717 46 324 4.0 8.0 0.00 0.00 0.00 100 960.0
20260509005615 46 321 4.0 8.0 0.00 0.00 0.00 100 960.0
20260509005412 46 313 4.0 8.0 0.00 0.00 0.00 100 960.0
20260509005208 46 314 3.0 5.0 0.00 0.00 0.00 100 960.0
20260509005107 46 317 3.0 5.0 0.00 0.00 0.00 100 959.9
20260509005005 46 318 3.0 6.0 0.00 0.00 0.00 100 960.0
20260509004802 46 320 4.0 6.0 0.00 0.00 0.00 100 959.9
20260509004559 46 325 3.0 6.0 0.00 0.00 0.00 100 960.0
20260509004458 46 325 3.0 5.0 0.00 0.00 0.00 100 960.1
20260509004356 46 326 3.0 5.0 0.00 0.00 0.00 100 959.9
20260509004154 46 324 3.0 5.0 0.00 0.00 0.00 100 960.0
20260509003950 46 299 2.0 4.0 0.00 0.00 0.00 100 960.0
20260509003850 46 274 1.0 3.0 0.00 0.00 0.00 100 960.1
20260509003747 46 0 0.0 2.0 0.00 0.00 0.00 100 960.1
20260509003544 46 0 0.0 2.0 0.00 0.00 0.00 100 960.1
20260509003341 46 0 0.0 2.0 0.00 0.00 0.00 100 960.1
20260509003240 46 0 0.0 2.0 0.00 0.00 0.00 100 960.1
20260509003138 46 0 0.0 2.0 0.00 0.00 0.00 100 960.1
20260509002934 46 0 0.0 1.0 0.00 0.00 0.00 100 960.0
20260509002718 46 0 0.0 2.0 0.00 0.00 0.00 100 960.0
20260509002618 46 0 0.0 2.0 0.00 0.00 0.00 100 960.0
20260509002515 46 0 0.0 2.0 0.00 0.00 0.00 100 960.0
20260509002313 46 0 0.0 2.0 0.00 0.00 0.00 100 960.0
20260509002109 46 0 0.0 2.0 0.00 0.00 0.00 100 960.2
20260509002008 46 0 0.0 2.0 0.00 0.00 0.00 100 960.2
20260509001906 46 0 0.0 2.0 0.00 0.00 0.00 100 960.1
20260509001702 46 0 0.0 2.0 0.00 0.00 0.00 100 960.2
20260509001459 46 0 0.0 2.0 0.00 0.00 0.00 100 960.1
20260509001358 46 0 0.0 2.0 0.00 0.00 0.00 100 960.1
20260509001255 46 0 0.0 2.0 0.00 0.00 0.00 100 960.1
20260509001052 46 0 0.0 3.0 0.00 0.00 0.00 100 960.1
20260509000849 46 0 0.0 3.0 0.00 0.00 0.00 100 960.1
20260509000749 45 0 0.0 3.0 0.00 0.00 0.00 100 960.2
20260509000646 45 0 0.0 3.0 0.00 0.00 0.00 100 960.1
20260509000443 46 0 0.0 2.0 0.00 0.00 0.00 100 960.2
20260509000241 46 0 0.0 2.0 0.00 0.00 0.00 100 960.2
20260509000140 46 0 0.0 2.0 0.00 0.00 0.00 100 960.2
20260509000037 46 0 0.0 2.0 0.00 0.00 0.00 100 960.2
20260508235835 46 0 0.0 2.0 0.00 0.00 0.00 100 960.3
20260508235632 46 0 0.0 2.0 0.00 0.00 0.00 100 960.2
20260508235531 46 0 0.0 2.0 0.00 0.00 0.00 100 960.2
20260508235428 46 0 0.0 3.0 0.00 0.00 0.00 100 960.2
20260508235225 46 0 0.0 2.0 0.00 0.00 0.00 100 960.3
20260508235022 45 0 0.0 2.0 0.00 0.00 0.00 100 960.3
20260508234922 46 0 0.0 2.0 0.00 0.00 0.00 100 960.3
20260508234820 45 0 0.0 2.0 0.00 0.00 0.00 100 960.3
20260508234617 46 0 0.0 2.0 0.00 0.00 0.00 100 960.3
20260508234415 45 0 0.0 2.0 0.00 0.00 0.00 100 960.3
20260508234314 46 0 0.0 2.0 0.00 0.00 0.00 100 960.3
20260508234211 46 0 0.0 2.0 0.00 0.00 0.00 100 960.3
20260508234008 46 0 0.0 2.0 0.00 0.00 0.00 100 960.3
20260508233805 46 0 0.0 2.0 0.00 0.00 0.00 100 960.4
20260508233705 46 0 0.0 2.0 0.00 0.00 0.00 100 960.3
20260508233602 46 0 0.0 2.0 0.00 0.00 0.00 100 960.4
20260508233359 46 0 0.0 2.0 0.00 0.00 0.00 100 960.4
20260508233156 46 0 0.0 2.0 0.00 0.00 0.00 100 960.3
20260508233055 46 0 0.0 2.0 0.00 0.00 0.00 100 960.3
20260508232953 46 0 0.0 2.0 0.00 0.00 0.00 100 960.3
20260508232749 46 0 0.0 3.0 0.00 0.00 0.00 100 960.4
20260508232546 46 0 1.0 3.0 0.00 0.00 0.00 100 960.3
20260508232445 45 0 1.0 3.0 0.00 0.00 0.00 100 960.3
20260508232343 46 0 1.0 3.0 0.00 0.00 0.00 100 960.3
20260508232140 45 0 1.0 3.0 0.00 0.00 0.00 100 960.4
20260508231937 45 0 0.0 2.0 0.00 0.00 0.00 100 960.3
20260508231836 45 0 0.0 2.0 0.00 0.00 0.00 100 960.3
20260508231734 45 0 0.0 2.0 0.00 0.00 0.00 100 960.4
20260508231530 45 0 0.0 3.0 0.00 0.00 0.00 100 960.4
20260508231327 45 0 0.0 3.0 0.00 0.00 0.00 100 960.4
20260508231227 45 0 0.0 3.0 0.00 0.00 0.00 100 960.3
20260508231124 45 0 0.0 3.0 0.00 0.00 0.00 100 960.3
20260508230921 45 0 0.0 3.0 0.00 0.00 0.00 100 960.3
20260508230718 45 0 0.0 3.0 0.00 0.00 0.00 100 960.2
20260508230618 45 0 0.0 3.0 0.00 0.00 0.00 100 960.3
20260508230515 45 0 1.0 4.0 0.00 0.00 0.00 100 960.4
20260508230312 45 0 1.0 4.0 0.00 0.00 0.00 100 960.4
20260508230110 45 0 1.0 4.0 0.00 0.00 0.00 100 960.3
20260508230009 45 0 1.0 4.0 0.00 0.00 0.00 100 960.3
20260508225907 45 0 1.0 3.0 0.00 0.00 0.00 100 960.3
20260508225704 46 0 1.0 3.0 0.00 0.00 0.00 100 960.3
20260508225501 46 0 1.0 4.0 0.00 0.00 0.00 100 960.3
20260508225400 46 0 1.0 4.0 0.00 0.00 0.00 100 960.3
20260508225258 46 0 0.0 4.0 0.00 0.00 0.00 100 960.2
20260508225055 46 0 1.0 3.0 0.00 0.00 0.00 100 960.4
20260508224851 46 0 1.0 3.0 0.00 0.00 0.00 100 960.3
20260508224751 46 0 1.0 3.0 0.00 0.00 0.00 100 960.3
20260508224648 46 0 1.0 3.0 0.00 0.00 0.00 100 960.3
20260508224445 46 0 1.0 3.0 0.00 0.00 0.00 100 960.3
20260508224242 46 0 1.0 2.0 0.00 0.00 0.00 100 960.3
20260508224141 45 0 1.0 3.0 0.00 0.00 0.00 100 960.3
20260508224038 45 0 1.0 3.0 0.00 0.00 0.00 100 960.3
20260508223835 45 0 1.0 3.0 0.00 0.00 0.00 100 960.3
20260508223631 45 0 0.0 3.0 0.00 0.00 0.00 100 960.4
20260508223531 45 0 0.0 2.0 0.00 0.00 0.00 100 960.3
20260508223428 45 0 0.0 2.0 0.00 0.00 0.00 100 960.3
20260508223225 45 0 0.0 2.0 0.00 0.00 0.00 100 960.3
20260508223022 45 0 0.0 2.0 0.00 0.00 0.00 100 960.3
20260508222921 45 0 0.0 2.0 0.00 0.00 0.00 100 960.3
20260508222818 45 0 0.0 2.0 0.00 0.00 0.00 100 960.3
20260508222615 46 0 0.0 1.0 0.00 0.00 0.00 100 960.3
20260508222412 46 0 0.0 1.0 0.00 0.00 0.00 100 960.2
20260508222312 46 0 0.0 2.0 0.00 0.00 0.00 100 960.3
20260508222209 46 0 0.0 2.0 0.00 0.00 0.00 100 960.3
20260508222006 46 198 1.0 2.0 0.00 0.00 0.00 100 960.3
20260508221803 46 187 1.0 2.0 0.00 0.00 0.00 100 960.3
20260508221702 46 174 1.0 2.0 0.00 0.00 0.00 100 960.3
20260508221600 46 149 1.0 3.0 0.00 0.00 0.00 100 960.3
20260508221357 45 130 2.0 3.0 0.00 0.00 0.00 100 960.3
20260508221154 45 115 3.0 4.0 0.00 0.00 0.00 100 960.4
20260508221054 45 109 3.0 4.0 0.00 0.00 0.00 100 960.3
20260508220951 45 106 3.0 4.0 0.00 0.00 0.00 100 960.4
20260508220748 46 103 2.0 3.0 0.00 0.00 0.00 100 960.5
20260508220545 46 95 1.0 3.0 0.00 0.00 0.00 100 960.4
20260508220444 46 0 0.0 2.0 0.00 0.00 0.00 100 960.4
20260508220341 46 0 0.0 2.0 0.00 0.00 0.00 100 960.3
20260508220138 46 0 0.0 2.0 0.00 0.00 0.00 100 960.3
20260508215935 46 0 0.0 2.0 0.00 0.00 0.00 100 960.3
20260508215835 46 0 0.0 2.0 0.00 0.00 0.00 100 960.2
20260508215732 46 0 0.0 2.0 0.00 0.00 0.00 100 960.3
20260508215529 46 0 0.0 2.0 0.00 0.00 0.00 100 960.3
20260508215326 46 0 0.0 2.0 0.00 0.00 0.00 100 960.4
20260508215225 46 0 0.0 2.0 0.00 0.00 0.00 100 960.3
20260508215123 46 0 0.0 2.0 0.00 0.00 0.00 100 960.3
20260508214920 47 0 0.0 2.0 0.00 0.00 0.00 100 960.2
20260508214706 47 0 0.0 2.0 0.00 0.00 0.00 100 960.3
20260508214605 47 0 0.0 2.0 0.00 0.00 0.00 100 960.2
20260508214503 47 0 0.0 1.0 0.00 0.00 0.00 100 960.2
20260508214258 47 0 0.0 1.0 0.00 0.00 0.00 100 960.2
20260508214055 47 0 0.0 1.0 0.00 0.00 0.00 100 960.2
20260508213954 47 0 0.0 2.0 0.00 0.00 0.00 100 960.2
20260508213852 47 227 0.0 2.0 0.00 0.00 0.00 100 960.2
20260508213649 47 232 0.0 2.0 0.00 0.00 0.00 100 960.2
20260508213446 47 0 0.0 2.0 0.00 0.00 0.00 100 960.3
20260508213346 47 0 0.0 2.0 0.00 0.00 0.00 100 960.3
20260508213243 47 0 0.0 2.0 0.00 0.00 0.00 100 960.2
20260508213041 48 0 0.0 2.0 0.00 0.00 0.00 100 960.2
20260508212837 48 243 0.0 2.0 0.00 0.00 0.00 100 960.2
20260508212736 48 239 0.0 2.0 0.00 0.00 0.00 100 960.2
20260508212634 48 0 1.0 2.0 0.00 0.00 0.00 100 960.2
20260508212431 48 236 1.0 2.0 0.00 0.00 0.00 100 960.2
20260508212228 48 244 1.0 2.0 0.00 0.00 0.00 100 960.1
20260508212127 48 0 0.0 2.0 0.00 0.00 0.00 100 960.2
20260508212024 48 0 0.0 2.0 0.00 0.00 0.00 100 960.2
20260508211822 48 0 0.0 1.0 0.00 0.00 0.00 100 960.2
20260508211619 48 0 0.0 2.0 0.00 0.00 0.00 100 960.2
20260508211518 48 0 0.0 2.0 0.00 0.00 0.00 100 960.2
20260508211415 48 0 0.0 2.0 0.00 0.00 0.00 100 960.1
20260508211212 48 260 1.0 2.0 0.00 0.00 0.00 100 960.2
20260508211009 48 276 2.0 3.0 0.00 0.00 0.00 100 960.2
20260508210909 48 278 2.0 4.0 0.00 0.00 0.00 100 960.2
20260508210806 48 280 2.0 4.0 0.00 0.00 0.00 100 960.2
20260508210603 48 277 2.0 4.0 0.00 0.00 0.00 100 960.2
20260508210400 48 281 2.0 4.0 0.00 0.00 0.00 100 960.3
20260508210259 48 283 3.0 4.0 0.00 0.00 0.00 100 960.2
20260508210156 48 289 3.0 4.0 0.00 0.00 0.00 100 960.2
20260508205953 48 290 3.0 4.0 0.00 0.00 0.00 100 960.3
20260508205750 48 282 3.0 4.0 0.00 0.00 0.00 100 960.2
20260508205649 48 277 2.0 4.0 0.00 0.00 0.00 100 960.2
20260508205547 48 277 2.0 4.0 0.00 0.00 0.00 100 960.2
20260508205343 48 280 2.0 4.0 0.00 0.00 0.00 100 960.3
20260508205141 48 283 2.0 4.0 0.00 0.00 0.00 100 960.2
20260508205041 48 286 2.0 3.0 0.00 0.00 0.00 100 960.3
20260508204938 48 291 2.0 3.0 0.00 0.00 0.00 100 960.1
20260508204735 48 277 1.0 4.0 0.00 0.00 0.00 100 960.3
20260508204531 48 262 2.0 4.0 0.00 0.00 0.00 100 960.2
20260508204430 48 269 2.0 4.0 0.00 0.00 0.00 100 960.2
20260508204328 48 281 2.0 4.0 0.00 0.00 0.00 100 960.2
20260508204125 48 287 2.0 4.0 0.00 0.00 0.00 100 960.2
20260508203921 48 291 2.0 3.0 0.00 0.00 0.00 100 960.2
20260508203821 48 296 2.0 2.0 0.00 0.00 0.00 100 960.2
20260508203718 48 304 2.0 2.0 0.00 0.00 0.00 100 960.2
20260508203515 48 306 1.0 2.0 0.00 0.00 0.00 100 960.2
20260508203312 48 283 1.0 2.0 0.00 0.00 0.00 100 960.2
20260508203211 48 260 0.0 2.0 0.00 0.00 0.00 100 960.2
20260508203109 48 262 1.0 3.0 0.00 0.00 0.00 100 960.2
20260508202906 48 285 1.0 3.0 0.00 0.00 0.00 100 960.1
20260508202703 48 302 2.0 3.0 0.00 0.00 0.00 100 960.1
20260508202602 48 299 1.0 2.0 0.00 0.00 0.00 100 960.2
20260508202459 48 290 1.0 2.0 0.00 0.00 0.00 100 960.1
20260508202256 49 272 1.0 1.0 0.00 0.00 0.00 100 960.0
20260508202053 49 0 0.0 2.0 0.00 0.00 0.00 100 960.0
20260508201952 49 0 0.0 2.0 0.00 0.00 0.00 100 960.1
20260508201850 49 0 0.0 2.0 0.00 0.00 0.00 100 960.1
20260508201647 49 0 0.0 1.0 0.00 0.00 0.00 100 960.1
20260508201444 49 0 0.0 1.0 0.00 0.00 0.00 100 960.1
20260508201343 49 0 0.0 1.0 0.00 0.00 0.00 100 960.1
20260508201240 49 0 0.0 1.0 0.00 0.00 0.00 100 960.1
20260508201037 48 0 0.0 1.0 0.00 0.00 0.00 100 960.2
20260508200834 48 0 0.0 1.0 0.00 0.00 0.00 100 960.1
20260508200734 48 0 0.0 1.0 0.00 0.00 0.00 100 960.2
20260508200632 48 0 0.0 1.0 0.00 0.00 0.00 100 960.2
20260508200428 48 0 0.0 1.0 0.00 0.00 0.00 100 960.2
20260508200226 48 0 0.0 1.0 0.00 0.00 0.00 100 960.2
20260508200125 48 0 0.0 1.0 0.00 0.00 0.00 100 960.1
20260508200022 48 0 0.0 1.0 0.00 0.00 0.00 100 960.1
20260508195819 48 0 0.0 1.0 0.00 0.00 0.00 100 960.1
20260508195616 48 0 0.0 1.0 0.00 0.00 0.00 100 960.1
20260508195515 48 0 0.0 1.0 0.00 0.00 0.00 100 960.1
20260508195413 48 0 0.0 1.0 0.00 0.00 0.00 100 960.1
20260508195210 48 0 0.0 1.0 0.00 0.00 0.00 100 960.1
20260508195007 48 0 0.0 1.0 0.00 0.00 0.00 100 960.1
20260508194906 48 0 0.0 1.0 0.00 0.00 0.00 100 960.1
20260508194804 48 0 0.0 1.0 0.00 0.00 0.00 100 960.1
20260508194601 48 0 0.0 1.0 0.00 0.00 0.00 100 960.1
20260508194358 48 0 0.0 1.0 0.00 0.00 0.00 100 960.2
20260508194257 48 0 0.0 1.0 0.00 0.00 0.00 100 960.1
20260508194155 48 0 0.0 1.0 0.00 0.00 0.00 100 960.1
20260508193952 48 0 0.0 1.0 0.00 0.00 0.00 100 960.1
20260508193749 48 0 0.0 2.0 0.00 0.00 0.00 100 960.1
20260508193648 48 0 0.0 2.0 0.00 0.00 0.00 100 960.2
20260508193546 48 0 0.0 2.0 0.00 0.00 0.00 100 960.1
20260508193343 48 0 0.0 2.0 0.00 0.00 0.00 100 960.1
20260508193140 48 0 0.0 2.0 0.00 0.00 0.00 100 960.0
20260508193039 47 0 0.0 2.0 0.00 0.00 0.00 100 960.1
20260508192937 47 0 0.0 2.0 0.00 0.00 0.00 100 960.1
20260508192733 48 0 0.0 2.0 0.00 0.00 0.00 100 960.0
20260508192530 47 0 0.0 2.0 0.00 0.00 0.00 100 960.1
20260508192430 47 0 0.0 2.0 0.00 0.00 0.00 100 960.1
20260508192327 47 0 0.0 2.0 0.00 0.00 0.00 100 960.1
20260508192124 47 0 0.0 2.0 0.00 0.00 0.00 100 960.1
20260508191921 47 0 0.0 1.0 0.00 0.00 0.00 100 960.0
20260508191820 47 0 0.0 1.0 0.00 0.00 0.00 100 960.0
20260508191718 47 0 0.0 1.0 0.00 0.00 0.00 100 960.1
20260508191514 47 0 0.0 2.0 0.00 0.00 0.00 100 960.1
20260508191311 47 0 1.0 3.0 0.00 0.00 0.00 100 960.0
20260508191107 47 185 1.0 3.0 0.00 0.00 0.00 100 960.0
20260508190851 47 152 3.0 5.0 0.00 0.00 0.00 100 960.0
20260508190648 47 146 3.0 5.0 0.00 0.00 0.00 100 960.0
20260508190547 47 145 3.0 5.0 0.00 0.00 0.00 100 960.0
20260508190444 47 148 2.0 4.0 0.00 0.00 0.00 100 959.9
20260508190241 48 175 1.0 2.0 0.00 0.00 0.00 100 960.0
20260508190038 48 0 0.0 2.0 0.00 0.00 0.00 100 960.0
20260508185938 48 0 0.0 2.0 0.00 0.00 0.00 100 959.9
20260508185835 48 0 0.0 1.0 0.00 0.00 0.00 100 959.9
20260508185632 48 0 0.0 1.0 0.00 0.00 0.00 100 959.9
20260508185429 48 0 0.0 1.0 0.00 0.00 0.00 100 959.9
20260508185327 48 0 0.0 1.0 0.00 0.00 0.00 100 959.9
20260508185225 48 0 0.0 1.0 0.00 0.00 0.00 100 959.8
20260508185023 48 0 0.0 1.0 0.00 0.00 0.00 100 959.8
20260508184820 48 0 0.0 1.0 0.00 0.00 0.00 100 959.7
20260508184719 49 0 0.0 2.0 0.00 0.00 0.00 100 959.8
20260508184617 48 0 0.0 2.0 0.00 0.00 0.00 100 959.8
20260508184413 48 0 0.0 2.0 0.00 0.00 0.00 100 959.8
20260508184210 48 0 0.0 1.0 0.00 0.00 0.00 100 959.7
20260508184109 48 0 0.0 1.0 0.00 0.00 0.00 100 959.7
20260508184007 48 0 0.0 1.0 0.00 0.00 0.00 100 959.7
20260508183804 48 0 0.0 1.0 0.00 0.00 0.00 100 959.7
20260508183602 49 260 0.0 2.0 0.00 0.00 0.00 100 959.7
20260508183501 49 260 1.0 2.0 0.00 0.00 0.00 100 959.7
20260508183359 49 258 1.0 2.0 0.00 0.00 0.00 100 959.6
20260508183156 48 0 0.0 2.0 0.00 0.00 0.00 100 959.7
20260508182953 48 0 0.0 1.0 0.00 0.00 0.00 100 959.7
20260508182852 48 0 0.0 1.0 0.00 0.00 0.00 100 959.7
20260508182750 48 0 0.0 1.0 0.00 0.00 0.00 100 959.7
20260508182547 48 0 0.0 1.0 0.00 0.00 0.00 100 959.6
20260508182344 48 0 0.0 2.0 0.00 0.00 0.00 100 959.6
20260508182244 48 0 0.0 2.0 0.00 0.00 0.00 100 959.6
20260508182141 48 0 0.0 1.0 0.00 0.00 0.00 100 959.7
20260508181938 48 325 1.0 3.0 0.00 0.00 0.00 100 959.7
20260508181735 48 332 2.0 4.0 0.00 0.00 0.00 100 959.6
20260508181635 48 334 2.0 4.0 0.00 0.00 0.00 100 959.6
20260508181532 48 343 2.0 4.0 0.00 0.00 0.00 100 959.6
20260508181329 48 353 2.0 3.0 0.00 0.00 0.00 100 959.4
20260508181126 48 351 2.0 3.0 0.00 0.00 0.00 100 959.5
20260508181025 48 349 2.0 3.0 0.00 0.00 0.00 100 959.5
20260508180923 48 349 2.0 3.0 0.00 0.00 0.00 100 959.4
20260508180719 49 351 3.0 4.0 0.00 0.00 0.00 100 959.4
20260508180516 49 349 3.0 5.0 0.00 0.00 0.00 100 959.5
20260508180415 49 346 3.0 6.0 0.00 0.00 0.00 100 959.3
20260508180313 49 346 3.0 6.0 0.00 0.00 0.00 100 959.4
20260508180110 49 348 3.0 6.0 0.00 0.00 0.00 100 959.4
20260508175906 49 350 3.0 4.0 0.00 0.00 0.00 100 959.5
20260508175806 49 348 3.0 5.0 0.00 0.00 0.00 100 959.3
20260508175704 49 346 4.0 6.0 0.00 0.00 0.00 100 959.3
20260508175501 49 342 4.0 5.0 0.00 0.00 0.00 100 959.3
20260508175257 49 330 3.0 5.0 0.00 0.00 0.00 100 959.3
20260508175157 49 328 3.0 7.0 0.00 0.00 0.00 100 959.4
20260508175054 49 332 4.0 7.0 0.00 0.00 0.00 100 959.4
20260508174851 49 339 4.0 7.0 0.00 0.00 0.00 100 959.4
20260508174648 49 340 5.0 7.0 0.00 0.00 0.00 100 959.4
20260508174547 49 343 5.0 7.0 0.00 0.00 0.00 100 959.4
20260508174445 49 344 5.0 7.0 0.00 0.00 0.00 100 959.5
20260508174241 49 345 4.0 8.0 0.00 0.00 0.00 100 959.4
20260508174038 49 341 4.0 8.0 0.00 0.00 0.00 100 959.4
20260508173938 49 341 4.0 6.0 0.00 0.00 0.00 100 959.3
20260508173835 49 342 4.0 7.0 0.00 0.00 0.00 100 959.4
20260508173632 49 344 5.0 8.0 0.00 0.00 0.00 100 959.4
20260508173429 49 341 4.0 8.0 0.00 0.00 0.00 100 959.5
20260508173328 49 340 4.0 8.0 0.00 0.00 0.00 100 959.5
20260508173226 49 333 3.0 6.0 0.00 0.00 0.00 100 959.5
20260508173022 49 346 3.0 5.0 0.00 0.00 0.00 100 959.4
20260508172819 49 349 3.0 5.0 0.00 0.00 0.00 100 959.4
20260508172718 49 353 3.0 5.0 0.00 0.00 0.00 100 959.4
20260508172616 49 354 4.0 6.0 0.00 0.00 0.00 100 959.3
20260508172412 49 357 4.0 6.0 0.00 0.00 0.00 100 959.3
20260508172209 49 0 3.0 5.0 0.00 0.00 0.00 100 959.2
20260508172109 49 359 3.0 5.0 0.00 0.00 0.00 100 959.3
20260508172006 49 0 3.0 5.0 0.00 0.00 0.00 100 959.3
20260508171803 49 358 4.0 6.0 0.00 0.00 0.00 100 959.2
20260508171600 49 359 5.0 8.0 0.00 0.00 0.00 100 959.3
20260508171459 49 1 5.0 8.0 0.00 0.00 0.00 100 959.2
20260508171357 49 1 5.0 8.0 0.00 0.00 0.00 100 959.2
20260508171154 49 359 5.0 7.0 0.00 0.00 0.00 100 959.3
20260508170951 49 358 5.0 7.0 0.00 0.00 0.00 100 959.3
20260508170748 49 0 5.0 7.0 0.00 0.00 0.00 100 959.3
20260508170545 49 358 5.0 7.0 0.00 0.00 0.00 100 959.4
20260508170341 49 357 5.0 7.0 0.00 0.00 0.00 100 959.3
20260508170241 49 359 5.0 7.0 0.00 0.00 0.00 100 959.2
20260508170138 49 359 5.0 7.0 0.00 0.00 0.00 100 959.2
20260508165936 49 355 5.0 8.0 0.00 0.00 0.00 100 959.3
20260508165733 49 358 6.0 10.0 0.00 0.00 0.00 100 959.2
20260508165632 49 358 7.0 10.0 0.00 0.00 0.00 100 959.3
20260508165529 49 358 7.0 10.0 0.00 0.00 0.00 100 959.2
20260508165326 49 357 7.0 10.0 0.00 0.00 0.00 100 959.3
20260508165123 49 358 7.0 10.0 0.00 0.00 0.00 100 959.2
20260508165022 49 357 7.0 10.0 0.00 0.00 0.00 100 959.1
20260508164919 49 356 8.0 10.0 0.00 0.00 0.00 100 959.2
20260508164716 49 352 8.0 10.0 0.00 0.00 0.00 100 959.2
20260508164513 49 353 6.0 10.0 0.00 0.00 0.00 100 959.2
20260508164413 49 353 5.0 10.0 0.00 0.00 0.00 100 959.2
20260508164310 49 353 5.0 8.0 0.00 0.00 0.00 100 959.1
20260508164107 49 349 6.0 10.0 0.00 0.00 0.00 100 959.1
20260508163904 49 350 7.0 10.0 0.00 0.00 0.00 100 959.2
20260508163803 49 352 7.0 10.0 0.00 0.00 0.00 100 959.2
20260508163700 49 356 7.0 10.0 0.00 0.00 0.00 100 959.1
20260508163457 49 1 7.0 11.0 0.00 0.00 0.00 100 959.1
20260508163254 49 2 7.0 10.0 0.00 0.00 0.00 100 959.1
20260508163154 49 1 7.0 10.0 0.00 0.00 0.00 100 959.1
20260508163051 49 2 6.0 10.0 0.00 0.00 0.00 100 959.1
20260508162837 49 348 5.0 9.0 0.00 0.00 0.00 100 959.1
20260508162635 49 346 4.0 9.0 0.00 0.00 0.00 100 959.1
20260508162534 49 348 4.0 7.0 0.00 0.00 0.00 100 959.2
20260508162432 49 352 4.0 7.0 0.00 0.00 0.00 100 959.2
20260508162229 49 342 4.0 7.0 0.00 0.00 0.00 100 959.1
20260508162026 49 336 4.0 7.0 0.00 0.00 0.00 100 959.1
20260508161925 49 339 4.0 7.0 0.00 0.00 0.00 100 959.1
20260508161823 49 351 4.0 7.0 0.00 0.00 0.00 100 959.1
20260508161620 49 354 5.0 7.0 0.00 0.00 0.00 100 959.0
20260508161417 49 349 6.0 8.0 0.00 0.00 0.00 100 959.0
20260508161315 49 347 6.0 9.0 0.00 0.00 0.00 100 959.1
20260508161213 49 345 6.0 9.0 0.00 0.00 0.00 100 959.0
20260508161010 50 340 6.0 10.0 0.00 0.00 0.00 100 959.1
20260508160807 50 338 6.0 10.0 0.00 0.00 0.00 100 959.0
20260508160706 50 337 6.0 10.0 0.00 0.00 0.00 100 959.0
20260508160603 50 338 5.0 10.0 0.00 0.00 0.00 100 959.0
20260508160400 50 336 6.0 10.0 0.00 0.00 0.00 100 959.0
20260508160157 50 339 6.0 10.0 0.00 0.00 0.00 100 959.1
20260508160056 50 340 6.0 10.0 0.00 0.00 0.00 100 959.0
20260508155954 50 341 6.0 10.0 0.00 0.00 0.00 100 959.0
20260508155750 50 347 6.0 10.0 0.00 0.00 0.00 100 959.0
20260508155547 50 355 6.0 10.0 0.00 0.00 0.00 100 959.0
20260508155447 50 354 7.0 10.0 0.00 0.00 0.00 100 959.0
20260508155345 50 350 6.0 10.0 0.00 0.00 0.00 100 959.0
20260508155141 49 345 6.0 10.0 0.00 0.00 0.00 100 959.0
20260508154938 50 347 6.0 12.0 0.00 0.00 0.00 100 959.0
20260508154837 50 348 7.0 13.0 0.00 0.00 0.00 100 959.0
20260508154735 50 350 8.0 13.0 0.00 0.00 0.00 100 959.1
20260508154532 50 345 8.0 13.0 0.00 0.00 0.00 100 959.0
20260508154329 50 342 7.0 12.0 0.00 0.00 0.00 100 959.0
20260508154228 50 345 7.0 12.0 0.00 0.00 0.00 100 959.0
20260508154126 50 345 7.0 11.0 0.00 0.00 0.00 100 959.0
20260508153923 50 346 7.0 12.0 0.00 0.00 0.00 100 959.1
20260508153720 50 345 6.0 12.0 0.00 0.00 0.00 100 959.0
20260508153619 50 344 6.0 10.0 0.00 0.00 0.00 100 959.1
20260508153516 50 344 6.0 10.0 0.00 0.00 0.00 100 959.0
20260508153314 50 345 6.0 10.0 0.00 0.00 0.00 100 959.0
20260508153110 50 344 4.0 9.0 0.00 0.00 0.00 100 959.0
20260508153009 50 344 5.0 9.0 0.00 0.00 0.00 100 959.0
20260508152907 50 343 5.0 9.0 0.00 0.00 0.00 100 959.1
20260508152703 50 342 4.0 8.0 0.00 0.00 0.00 100 959.0
20260508152500 50 343 5.0 10.0 0.00 0.00 0.00 100 959.1
20260508152359 50 343 6.0 10.0 0.00 0.00 0.00 100 959.1
20260508152257 50 349 6.0 10.0 0.00 0.00 0.00 100 959.1
20260508152054 50 350 6.0 10.0 0.00 0.00 0.00 100 959.0
20260508151851 50 346 6.0 11.0 0.00 0.00 0.00 100 959.0
20260508151750 50 345 6.0 11.0 0.00 0.00 0.00 100 959.0
20260508151647 50 346 6.0 11.0 0.00 0.00 0.00 100 959.0
20260508151444 51 349 7.0 12.0 0.00 0.00 0.00 100 959.1
20260508151240 51 354 8.0 12.0 0.00 0.00 0.00 100 959.0
20260508151140 51 357 8.0 10.0 0.00 0.00 0.00 100 959.0
20260508151037 51 356 7.0 10.0 0.00 0.00 0.00 100 959.0
20260508150835 51 358 6.0 10.0 0.00 0.00 0.00 100 959.0
20260508150632 51 354 5.0 10.0 0.00 0.00 0.00 100 959.1
20260508150531 51 351 5.0 7.0 0.00 0.00 0.00 100 959.1
20260508150429 51 353 4.0 7.0 0.00 0.00 0.00 100 959.0
20260508150226 51 354 4.0 7.0 0.00 0.00 0.00 100 959.1
20260508150022 51 357 4.0 6.0 0.00 0.00 0.00 100 959.1
20260508145921 51 359 4.0 6.0 0.00 0.00 0.00 100 959.0
20260508145819 51 359 4.0 5.0 0.00 0.00 0.00 100 959.0
20260508145616 51 355 4.0 6.0 0.00 0.00 0.00 100 959.0
20260508145412 51 342 4.0 6.0 0.00 0.00 0.00 100 958.9
20260508145311 51 337 4.0 6.0 0.00 0.00 0.00 100 959.0
20260508145209 51 336 4.0 7.0 0.00 0.00 0.00 100 959.0
20260508145006 51 335 5.0 7.0 0.00 0.00 0.00 100 959.0
20260508144803 51 330 5.0 7.0 0.00 0.00 0.00 100 959.0
20260508144702 51 330 5.0 7.0 0.00 0.00 0.00 100 959.0
20260508144600 51 327 5.0 7.0 0.00 0.00 0.00 100 959.0
20260508144356 51 339 4.0 7.0 0.00 0.00 0.00 100 959.0
20260508144153 50 344 5.0 8.0 0.00 0.00 0.00 100 959.0
20260508144052 50 343 5.0 8.0 0.00 0.00 0.00 100 958.9
20260508143949 50 342 5.0 8.0 0.00 0.00 0.00 100 959.0
20260508143747 50 338 6.0 8.0 0.00 0.00 0.00 100 958.9
20260508143544 50 344 6.0 8.0 0.00 0.00 0.00 100 959.0
20260508143443 50 346 5.0 8.0 0.00 0.00 0.00 100 958.9
20260508143341 50 348 5.0 8.0 0.00 0.00 0.00 100 959.0
20260508143137 50 344 5.0 8.0 0.00 0.00 0.00 100 958.9
20260508142934 50 339 6.0 10.0 0.00 0.00 0.00 100 958.9
20260508142732 50 342 6.0 10.0 0.00 0.00 0.00 100 958.9
20260508142528 50 345 6.0 9.0 0.00 0.00 0.00 100 958.8
20260508142325 50 347 6.0 9.0 0.00 0.00 0.00 100 958.8
20260508142224 50 348 6.0 10.0 0.00 0.00 0.00 100 958.9
20260508142122 50 350 6.0 10.0 0.00 0.00 0.00 100 958.9
20260508141920 50 344 7.0 10.0 0.00 0.00 0.00 100 958.9
20260508141716 50 337 7.0 10.0 0.00 0.00 0.00 100 958.8
20260508141615 50 337 8.0 11.0 0.00 0.00 0.00 100 958.9
20260508141513 50 339 8.0 13.0 0.00 0.00 0.00 100 958.9
20260508141310 50 340 9.0 13.0 0.00 0.00 0.00 100 959.0
20260508141106 50 346 10.0 13.0 0.00 0.00 0.00 100 958.9
20260508141005 50 347 10.0 13.0 0.00 0.00 0.00 100 958.9
20260508140903 50 348 9.0 13.0 0.00 0.00 0.00 100 958.9
20260508140700 50 345 9.0 14.0 0.00 0.00 0.00 100 958.9
20260508140457 50 344 9.0 14.0 0.00 0.00 0.00 100 958.9
20260508140356 50 343 9.0 13.0 0.00 0.00 0.00 100 958.7
20260508140253 50 341 8.0 13.0 0.00 0.00 0.00 100 958.8
20260508140050 50 340 8.0 12.0 0.00 0.00 0.00 100 958.9
20260508135847 50 342 8.0 13.0 0.00 0.00 0.00 100 958.8
20260508135747 50 343 9.0 16.0 0.00 0.00 0.00 100 958.8
20260508135645 50 347 9.0 16.0 0.00 0.00 0.00 100 958.9
20260508135442 50 351 11.0 16.0 0.00 0.00 0.00 100 958.9
20260508135238 50 351 9.0 16.0 0.00 0.00 0.00 100 958.7
20260508135138 50 350 8.0 16.0 0.00 0.00 0.00 100 958.8
20260508135023 50 343 9.0 15.0 0.00 0.00 0.00 100 958.9
20260508134820 50 343 10.0 17.0 0.00 0.00 0.00 100 958.8
20260508134617 50 348 10.0 16.0 0.00 0.00 0.00 100 958.8
20260508134516 50 358 10.0 15.0 0.00 0.00 0.00 100 958.7
20260508134414 50 0 10.0 15.0 0.00 0.00 0.00 100 958.7
20260508134210 51 357 10.0 15.0 0.00 0.00 0.00 100 958.7
20260508134007 51 344 8.0 12.0 0.00 0.00 0.00 100 958.6
20260508133907 51 341 8.0 14.0 0.00 0.00 0.00 100 958.5
20260508133805 51 341 8.0 16.0 0.00 0.00 0.00 100 958.6
20260508133602 50 343 10.0 16.0 0.00 0.00 0.00 100 958.6
20260508133359 51 348 10.0 16.0 0.00 0.00 0.00 100 958.5
20260508133258 51 348 10.0 17.0 0.00 0.00 0.00 100 958.6
20260508133156 50 348 10.0 17.0 0.00 0.00 0.00 100 958.6
20260508132953 51 349 11.0 17.0 0.00 0.00 0.00 100 958.7
20260508132750 51 346 11.0 16.0 0.00 0.00 0.00 100 958.6
20260508132649 51 344 9.0 16.0 0.00 0.00 0.00 100 958.6
20260508132547 51 343 9.0 16.0 0.00 0.00 0.00 100 958.7
20260508132344 51 349 9.0 14.0 0.00 0.00 0.00 100 958.7
20260508132141 51 346 10.0 14.0 0.00 0.00 0.00 100 958.8
20260508132040 51 343 9.0 14.0 0.00 0.00 0.00 100 958.6
20260508131938 51 342 9.0 14.0 0.00 0.00 0.00 100 958.6
20260508131734 51 341 9.0 14.0 0.00 0.00 0.00 100 958.7
20260508131531 51 338 10.0 15.0 0.00 0.00 0.00 100 958.5
20260508131430 51 339 9.0 15.0 0.00 0.00 0.00 100 958.6
20260508131327 51 339 10.0 15.0 0.00 0.00 0.00 100 958.6
20260508131124 51 340 10.0 16.0 0.00 0.00 0.00 100 958.5